Bluefield, WV

1:21 AM EDT on May 24, 2017 (GMT -0400)
Mercer County

Weather History for KBLF - March, 2014

Change the Weather History Date:

Friday, March 21, 2014

  Actual Average Record
Temperature  
Mean Temperature 52 °F 47 °F  
Max Temperature 65 °F 56 °F 77 °F (2012)
Min Temperature 38 °F 38 °F 8 °F (1965)
Degree Days  
Heating Degree Days 13 18  
Month to date heating degree days 462 450  
Since 1 July heating degree days 4097 3943  
Cooling Degree Days 0 0  
Month to date cooling degree days 0 0  
Year to date cooling degree days 0 0  
Growing Degree Days 2 (Base 50)    
Moisture  
Dew Point 18 °F    
Average Humidity 30    
Maximum Humidity 44    
Minimum Humidity 15    
Precipitation  
Precipitation 0.00 in 0.11 in 0.79 in (1974)
Month to date precipitation 1.40 2.36  
Year to date precipitation 5.53 8.02  
Snow  
Snow 0.00 in - - ()
Month to date snowfall 6.0  
Since 1 July snowfall 43.6  
Snow Depth 0.00 in    
Sea Level Pressure  
Sea Level Pressure 30.03 in    
Wind  
Wind Speed 9 mph (WSW)    
Max Wind Speed 21 mph    
Max Gust Speed 27 mph    
Visibility 10 miles    
Events      
T = Trace of Precipitation, MM = Missing Value Source: NWS Daily Summary

Daily Weather History Graph

Daily Weather History Graph

Search for Another Location

Airport or City:

Trip Planner

Search our weather history database for the weather conditions in past years. The results will help you decide how hot, cold, wet, or windy it might be!

Date:

Astronomy

Mar. 21, 2014 Rise Set
Actual Time 7:26 AM EDT 7:37 PM EDT
Civil Twilight 7:00 AM EDT 8:03 PM EDT
Nautical Twilight 6:30 AM EDT 8:34 PM EDT
Astronomical Twilight 5:59 AM EDT 9:05 PM EDT
Moon No Moon Rise 10:23 AM EDT (3/21)
Length of Visible Light 13h 02m
Length of Day
12h 10m
Waning Gibbous, 75% of the Moon is Illuminated
Mar 21
Waning Gibbous
Mar 23
Last Quarter
Mar 30
New
Apr 7
First Quarter
Apr 15
Full

Hourly Weather History & Observations

Time (EDT) Temp. Windchill Dew Point Humidity Pressure Visibility Wind Dir Wind Speed Gust Speed Precip Events Conditions
12:52 AM 39.0 °F 33.4 °F 19.0 °F 45% 30.05 in 10.0 mi WSW 8.1 mph - N/A   Clear
1:52 AM 39.9 °F 34.5 °F 19.0 °F 43% 30.05 in 10.0 mi West 8.1 mph - N/A   Clear
2:52 AM 39.0 °F 34.0 °F 19.0 °F 45% 30.05 in 10.0 mi West 6.9 mph - N/A   Clear
3:52 AM 39.0 °F 34.0 °F 19.0 °F 45% 30.04 in 10.0 mi West 6.9 mph - N/A   Clear
4:52 AM 39.0 °F 34.0 °F 19.0 °F 45% 30.04 in 10.0 mi West 6.9 mph - N/A   Clear
5:52 AM 39.0 °F 34.8 °F 19.0 °F 45% 30.05 in 10.0 mi West 5.8 mph - N/A   Clear
6:52 AM 39.0 °F 34.8 °F 19.9 °F 46% 30.07 in 10.0 mi West 5.8 mph - N/A   Clear
7:52 AM 39.0 °F 34.0 °F 19.9 °F 46% 30.07 in 10.0 mi West 6.9 mph - N/A   Clear
8:52 AM 43.0 °F 38.8 °F 21.0 °F 42% 30.09 in 10.0 mi West 6.9 mph - N/A   Clear
9:52 AM 48.0 °F - 21.9 °F 36% 30.09 in 10.0 mi WSW 6.9 mph - N/A   Clear
10:52 AM 53.1 °F - 21.0 °F 29% 30.10 in 10.0 mi West 8.1 mph - N/A   Clear
11:52 AM 55.0 °F - 21.0 °F 27% 30.09 in 10.0 mi WNW 15.0 mph 24.2 mph N/A   Clear
12:52 PM 59.0 °F - 21.9 °F 24% 30.07 in 10.0 mi WSW 11.5 mph 20.7 mph N/A   Clear
1:52 PM 62.1 °F - 21.0 °F 21% 30.04 in 10.0 mi West 10.4 mph 19.6 mph N/A   Clear
2:52 PM 62.1 °F - 18.0 °F 18% 30.01 in 10.0 mi West 16.1 mph 19.6 mph N/A   Clear
3:52 PM 64.9 °F - 15.1 °F 15% 29.99 in 10.0 mi West 15.0 mph 23.0 mph N/A   Clear
4:52 PM 64.0 °F - 16.0 °F 16% 29.98 in 10.0 mi WSW 11.5 mph 20.7 mph N/A   Clear
5:52 PM 64.0 °F - 15.1 °F 15% 29.96 in 10.0 mi WSW 11.5 mph 18.4 mph N/A   Clear
6:52 PM 61.0 °F - 15.1 °F 17% 29.97 in 10.0 mi WSW 12.7 mph - N/A   Clear
7:52 PM 57.0 °F - 17.1 °F 21% 29.97 in 10.0 mi WSW 5.8 mph - N/A   Clear
8:52 PM 57.0 °F - 15.1 °F 19% 29.97 in 10.0 mi WSW 5.8 mph - N/A   Clear
9:52 PM 55.9 °F - 12.0 °F 18% 29.96 in 10.0 mi SSW 4.6 mph - N/A   Clear
10:52 PM 55.0 °F - 16.0 °F 22% 29.96 in 10.0 mi SSW 4.6 mph - N/A   Clear
11:52 PM 54.0 °F - 19.0 °F 25% 29.95 in 10.0 mi SW 6.9 mph - N/A   Clear